Location: Palo Alto
(37.4420°N, 122.1420°W)
Time: 18:55:58
(UTC-08:00)

Daily predictions for brighter satellites

Satellite Brightness Start Highest point End
(mag) Time Altitude Azimuth Time Altitude Azimuth Time Altitude Azimuth
Meteor 1-27 4.5 17:41:25 10° N 17:47:07 52° ENE 17:52:46 10° SSE
Meteor 2-10 4.2 17:43:34 10° N 17:48:34 51° ENE 17:53:43 10° SSE
Cosmos 1340 Rocket 3.0 17:45:53 10° S 17:49:41 49° E 17:53:29 10° NNE
Cosmos 304 Rocket 3.8 17:48:47 10° S 17:53:32 63° ESE 17:58:17 10° NNE
Meteor 1-28 Rocket 4.0 17:53:17 10° NE 17:56:36 30° E 17:59:53 10° SSE
Tiangong 1 3.1 17:56:05 10° S 17:57:58 15° SE 17:59:49 10° ESE
Lacrosse 4 Rocket 3.1 17:57:05 10° NNE 17:59:16 14° NE 18:01:27 10° E
Cosmos 2297 3.9 17:54:45 10° NNW 18:00:18 49° ENE 18:05:50 10° SE
Aureole 2 Rocket 3.3 17:57:33 10° SSW 18:01:14 58° WNW 18:05:15 10° N
Cosmos 1151 Rocket 3.4 17:57:10 10° NNW 18:01:26 71° W 18:05:43 10° S
Cosmos 372 Rocket 4.3 18:07:24 10° NNW 18:12:29 71° WSW 18:17:33 10° S
IDEFIX/ARIANE 42P 4.1 18:07:51 10° SSW 18:12:45 41° W 18:17:43 10° NNW
Cosmos 2058 3.3 18:08:53 10° SSW 18:12:57 67° W 18:17:03 10° N
Cosmos 2279 Rocket 4.0 18:08:01 10° N 18:14:16 83° E 18:20:30 10° S
Cosmos 1805 Rocket 3.5 18:13:56 10° S 18:18:23 78° E 18:22:51 10° N
Cosmos 773 Rocket 4.3 18:14:18 10° S 18:19:12 46° ESE 18:24:10 10° NNE
SOZ 4.1 18:17:41 10° SW 18:19:53 79° NW 18:21:32 18° NE
Cosmos 1461 3.6 18:16:09 10° SW 18:20:16 53° WNW 18:24:16 10° NNE
NOAA 12 4.4 18:15:26 10° SE 18:20:23 44° ENE 18:25:21 10° N
Cosmos 1626 2.1 18:18:54 10° S 18:22:35 65° E 18:26:19 10° NNE
SKYMED 2 3.7 18:18:31 10° N 18:22:53 80° WNW 18:27:12 10° SSW
Cosmos 2242 Rocket 4.4 18:19:41 10° NNE 18:23:32 29° ENE 18:27:24 10° SE
Cosmos 1900 4.3 18:22:40 10° NNW 18:27:39 78° ENE 18:32:40 10° SSE
Sich 1 3.0 18:26:43 10° S 18:31:07 68° E 18:35:32 10° NNE
Nadezhda 4 Rocket 4.0 18:25:09 10° S 18:31:19 66° E 18:37:35 10° NNE
Cosmos 1356 Rocket 3.2 18:28:55 10° S 18:32:54 88° E 18:36:55 10° N
USA 215 3.8 18:28:14 15° E 18:33:03 38° NNE 18:38:59 10° NNW
Lacrosse 5 rocket 2.8 18:29:50 10° WNW 18:33:24 37° SW 18:37:07 10° SSE
Coronas F rocket 1.2 18:31:44 10° S 18:34:02 44° E 18:34:09 44° E
ALOS 3.0 18:36:10 10° SE 18:40:13 30° ENE 18:44:17 10° N
Aureole 1 Rocket 3.8 18:35:56 10° S 18:41:09 72° ESE 18:48:07 10° NNE
Cosmos 1633 Rocket 2.9 18:37:16 10° S 18:41:40 79° E 18:46:04 10° N
BREEZE M DEB (TANK) 1.2 18:40:15 10° NW 18:42:28 53° NNE 18:42:28 53° NNE
Cosmos 1455 2.1 18:43:29 10° N 18:47:18 85° E 18:51:07 10° S
Cosmos 1603 3.7 18:44:31 10° S 18:50:01 59° ESE 18:54:02 19° NNE
Cosmos 292 Rocket 3.8 18:45:34 10° S 18:50:10 52° ESE 18:52:44 25° NE
Cosmos 1184 Rocket 3.3 18:48:56 10° SSW 18:52:14 60° W 18:55:30 10° N
FengYun 1-2 T 4.4 18:48:19 10° SE 18:53:36 47° ENE 18:58:51 10° N
Cosmos 1092 Rocket 3.9 18:47:32 10° S 18:53:49 71° E 19:00:09 10° N
BREEZE-M DEB (TANK) 3.8 18:53:33 10° WNW 18:55:29 22° NNW 18:55:53 21° N
SJ-6B 2.8 18:54:58 10° SSE 18:59:03 88° ENE 19:03:12 10° NNW
Spot 2 Rocket 3.5 19:03:38 10° SSE 19:08:32 55° ENE 19:13:27 10° N
FREGAT/IRIS 3.4 19:08:34 10° S 19:11:32 52° W 19:14:33 10° NNW
Iridium 4 Rocket 3.1 19:07:20 10° S 19:11:51 81° W 19:16:07 10° N
Cosmos 2195 Rocket 4.3 19:10:52 10° S 19:16:55 70° E 19:23:03 10° NNE
USA 229 DEB 4.0 19:10:13 10° SW 19:17:01 66° NW 19:22:08 19° NNE
USA 229 4.0 19:10:19 10° SW 19:17:07 67° NW 19:22:11 20° NNE
Centaur AC-119 4.3 19:16:31 10° SSW 19:18:32 20° SSE 19:18:32 20° SSE
Cosmos 2369 Rocket 3.3 19:21:39 10° N 19:24:42 28° NNE 19:24:42 28° NNE
SL-19 R/B 4.3 19:21:34 10° SSE 19:27:29 81° WSW 19:33:07 10° NNW
Resurs 01 Rocket 1.5 19:23:30 10° SSE 19:27:57 89° W 19:32:25 10° NNW
Cosmos 1933 Rocket 3.8 19:25:03 10° SSW 19:29:27 67° W 19:31:02 38° NNW
SL-16 R/B 4.3 19:25:06 10° WSW 19:29:33 23° WNW 19:34:02 10° N
NOSS 3-1 (A) 3.8 19:25:27 10° S 19:29:52 42° SE 19:29:52 42° SE
Tiangong 1 3.6 19:30:46 10° WSW 19:31:52 20° WSW 19:31:52 20° WSW
Lacrosse 4 Rocket 2.2 19:34:20 10° NW 19:38:14 48° WSW 19:38:14 48° WSW
Cosmos 1680 Rocket 4.0 19:35:49 10° SSW 19:40:57 58° WNW 19:42:54 36° N
Cosmos 1655 Rocket 4.0 19:44:58 10° S 19:51:22 84° W 19:54:26 33° N
FENGYUN 3A 4.3 19:46:52 10° S 19:52:05 53° W 19:57:20 10° NNW
CZ-4C R/B 4.4 19:51:24 10° N 19:53:53 18° N 19:53:53 18° N
Cosmos 1943 3.7 20:01:14 10° SSW 20:05:44 54° WSW 20:05:44 54° WSW
NOSS 3-1 (C) 3.7 20:02:48 10° SW 20:07:48 62° W 20:07:48 62° W
ATLAS 5 CENTAUR R/B 4.4 20:09:19 10° NNW 20:10:32 16° N 20:10:32 16° N
USA 215 3.4 20:15:37 64° SW 20:15:46 65° SW 20:22:18 10° NW
ALOS 4.4 20:13:53 10° SSW 20:17:38 24° W 20:21:23 10° NW
BREEZE-M DEB (TANK) 4.4 20:24:38 10° WSW 20:29:53 82° NNW 20:56:20 10° ENE
